Flag for U.S.A. Weather past 2 weeks in San Francisco, California, U.S.A.

55 °F

Scattered clouds.

Feels Like: 50 °F
Forecast: 50 / 56 °F
Wind: 23 mph from West

Location: San Francisco International Airport

Current Time: Nov 24, 2015 at 3:21:00 PM

Latest Report: Nov 24, 2015 at 2:56 PM

Visibility: 10 mi

Pressure: 29.92 "Hg

Humidity: 59%

Dew point: 41 °F

Location of San FranciscoLocation

Historic Weather in San Francisco — Graph


San Francisco temperature yesterday

Maximum temperature yesterday: 58 °F (at 12:56 PM)
Minimum temperature yesterday: 49 °F (at 3:56 AM)
Average temperature yesterday: 53 °F

Past Weeks' High & Low Weather Summary

High68 °F (Nov 19, 2:56 PM)93% (Nov 15, 4:56 AM)30.42 "Hg (Nov 15, 4:56 AM)
Low44 °F (Nov 11, 5:56 AM)35% (Nov 16, 12:56 PM)29.77 "Hg (Nov 15, 5:56 AM)
Average55 °F72%30.10 "Hg
* Reported Nov 9 1:56 PM — Nov 24 1:56 PM, San Francisco, Weather by CustomWeather, © 2015

Note: Actual official high and low records may vary slightly from our data, if they occured in-between our weather recording intervals... More about our weather records


San Francisco weather history for previous 24 hours

Time TempWeatherWind HumidityBarometerVisibility
1:56 PM
Tue, Nov 24
55 °FPassing clouds.18 mph57%29.92 "Hg10 mi
12:56 PM55 °FScattered clouds.18 mph59%29.91 "Hg10 mi
11:56 AM54 °FPartly sunny.21 mph69%29.91 "Hg10 mi
10:56 AM52 °FLight rain. Cloudy.21 mph83%29.91 "Hg6 mi
9:56 AM56 °FRain. Fog.9 mph87%29.89 "Hg4 mi
8:56 AM58 °FLight rain. Cloudy.14 mph72%29.89 "Hg10 mi
7:56 AM56 °FBroken clouds.6 mph77%29.89 "Hg10 mi
6:56 AM56 °FPartly cloudy.6 mph75%29.90 "Hg10 mi
5:56 AM56 °FPassing clouds.6 mph77%29.90 "Hg10 mi
4:56 AM54 °FPartly cloudy.No wind83%29.91 "Hg10 mi
3:56 AM53 °FPassing clouds.No wind86%29.91 "Hg10 mi
2:56 AM54 °FPartly cloudy.5 mph80%29.93 "Hg10 mi
1:56 AM54 °FPartly cloudy.3 mph80%29.93 "Hg10 mi
12:56 AM54 °FPartly cloudy.7 mph80%29.93 "Hg10 mi
11:56 PM
Mon, Nov 23
52 °FPartly cloudy.3 mph83%29.94 "Hg10 mi
10:56 PM51 °FPassing clouds.No wind83%29.96 "Hg10 mi
9:56 PM52 °FPassing clouds.3 mph80%29.94 "Hg10 mi
8:56 PM52 °FPassing clouds.5 mph83%29.95 "Hg10 mi
7:56 PM53 °FPassing clouds.5 mph77%29.94 "Hg10 mi
6:56 PM54 °FPassing clouds.3 mph77%29.95 "Hg10 mi
5:56 PM54 °FPassing clouds.8 mph77%29.95 "Hg10 mi
4:56 PM54 °FPassing clouds.12 mph74%29.95 "Hg10 mi
3:56 PM55 °FPassing clouds.14 mph69%29.94 "Hg10 mi
Weather by CustomWeather, © 2015

See weather overviewHow to use our weather pages